Time,TemperatureF,DewpointF,PressureIn,WindDirection,WindDirectionDegrees,WindSpeedMPH,WindSpeedGustMPH,Humidity,HourlyPrecipIn,Conditions,Clouds,dailyrainin,SoftwareType,DateUTC
2013-01-04 00:00:00,30.1,25.3,30.01,WNW,302,0.0,0.0,82,0.00,,,0.00,Wunderground v.1.15,2013-01-04 06:00:00,
2013-01-04 00:05:00,30.0,25.2,30.02,NW,307,0.0,0.0,82,0.00,,,0.00,Wunderground v.1.15,2013-01-04 06:05:00,
2013-01-04 00:10:00,29.7,25.2,30.01,NW,309,0.0,0.0,83,0.00,,,0.00,Wunderground v.1.15,2013-01-04 06:10:00,
2013-01-04 00:20:00,29.6,25.1,30.02,NW,305,0.0,0.0,83,0.00,,,0.00,Wunderground v.1.15,2013-01-04 06:20:00,
2013-01-04 00:30:00,28.4,23.9,30.02,NW,305,0.0,0.0,83,0.00,,,0.00,Wunderground v.1.15,2013-01-04 06:30:00,
2013-01-04 00:35:00,28.5,24.6,30.01,NW,305,0.0,0.0,85,0.00,,,0.00,Wunderground v.1.15,2013-01-04 06:35:00,
2013-01-04 00:45:00,28.1,23.9,30.02,NW,304,0.0,0.0,84,0.00,,,0.00,Wunderground v.1.15,2013-01-04 06:45:00,
2013-01-04 00:55:00,27.4,23.8,30.01,NW,304,0.0,0.0,86,0.00,,,0.00,Wunderground v.1.15,2013-01-04 06:55:00,
2013-01-04 01:00:00,26.7,23.1,30.01,NW,304,0.0,0.0,86,0.00,,,0.00,Wunderground v.1.15,2013-01-04 07:00:00,
2013-01-04 01:10:00,25.6,22.3,30.01,NW,305,0.0,0.0,87,0.00,,,0.00,Wunderground v.1.15,2013-01-04 07:10:00,
2013-01-04 01:20:00,25.3,22.5,30.00,NW,305,0.0,0.0,89,0.00,,,0.00,Wunderground v.1.15,2013-01-04 07:20:00,
2013-01-04 01:30:00,25.0,22.7,30.01,NW,304,0.0,0.0,91,0.00,,,0.00,Wunderground v.1.15,2013-01-04 07:30:00,
2013-01-04 01:35:00,25.4,23.1,30.01,NW,305,0.0,0.0,91,0.00,,,0.00,Wunderground v.1.15,2013-01-04 07:35:00,
2013-01-04 01:45:00,25.8,23.5,30.01,WSW,255,0.0,0.0,91,0.00,,,0.00,Wunderground v.1.15,2013-01-04 07:45:00,
2013-01-04 01:50:00,26.0,23.7,30.01,WSW,255,0.0,0.0,91,0.00,,,0.00,Wunderground v.1.15,2013-01-04 07:50:00,
2013-01-04 02:01:00,25.8,23.5,30.01,WSW,255,0.0,0.0,91,0.00,,,0.00,Wunderground v.1.15,2013-01-04 08:01:00,
2013-01-04 02:10:00,25.8,23.8,30.01,WSW,255,0.0,0.0,92,0.00,,,0.00,Wunderground v.1.15,2013-01-04 08:10:00,
2013-01-04 02:20:00,25.2,23.2,30.01,WSW,255,0.0,0.0,92,0.00,,,0.00,Wunderground v.1.15,2013-01-04 08:20:00,
2013-01-04 02:30:00,25.0,23.3,30.00,WSW,255,0.0,0.0,93,0.00,,,0.00,Wunderground v.1.15,2013-01-04 08:30:00,
2013-01-04 02:35:00,24.8,23.1,30.00,WSW,255,0.0,0.0,93,0.00,,,0.00,Wunderground v.1.15,2013-01-04 08:35:00,
2013-01-04 02:45:00,24.7,23.2,30.01,WSW,255,0.0,0.0,94,0.00,,,0.00,Wunderground v.1.15,2013-01-04 08:45:00,
2013-01-04 02:55:00,24.5,22.8,30.01,WSW,255,0.0,0.0,93,0.00,,,0.00,Wunderground v.1.15,2013-01-04 08:55:00,
2013-01-04 03:01:00,24.5,23.0,30.01,WSW,255,0.0,0.0,94,0.00,,,0.00,Wunderground v.1.15,2013-01-04 09:01:00,
2013-01-04 03:10:00,24.2,22.5,30.01,WSW,255,0.0,0.0,93,0.00,,,0.00,Wunderground v.1.15,2013-01-04 09:10:00,
2013-01-04 03:20:00,23.6,21.9,30.00,WSW,255,0.0,0.0,93,0.00,,,0.00,Wunderground v.1.15,2013-01-04 09:20:00,
2013-01-04 03:30:00,23.6,21.9,30.01,WSW,255,0.0,0.0,93,0.00,,,0.00,Wunderground v.1.15,2013-01-04 09:30:00,
2013-01-04 03:40:00,23.8,22.3,30.01,WSW,256,0.0,0.0,94,0.00,,,0.00,Wunderground v.1.15,2013-01-04 09:40:00,
2013-01-04 03:50:00,24.3,22.8,30.01,WSW,252,1.0,2.0,94,0.00,,,0.00,Wunderground v.1.15,2013-01-04 09:50:00,
2013-01-04 04:00:00,24.4,22.4,30.00,West,260,1.0,1.0,92,0.00,,,0.00,Wunderground v.1.15,2013-01-04 10:00:00,
2013-01-04 04:10:00,24.2,22.2,30.00,West,260,0.0,1.0,92,0.00,,,0.00,Wunderground v.1.15,2013-01-04 10:10:00,
2013-01-04 04:15:00,24.0,22.3,30.00,West,276,0.0,1.0,93,0.00,,,0.00,Wunderground v.1.15,2013-01-04 10:15:00,
2013-01-04 04:25:00,23.3,21.6,30.01,West,276,0.0,0.0,93,0.00,,,0.00,Wunderground v.1.15,2013-01-04 10:25:00,
2013-01-04 04:30:00,23.3,21.6,30.00,SW,223,0.0,1.0,93,0.00,,,0.00,Wunderground v.1.15,2013-01-04 10:30:00,
2013-01-04 04:35:00,23.4,21.7,30.00,WSW,249,1.0,4.0,93,0.00,,,0.00,Wunderground v.1.15,2013-01-04 10:35:00,
2013-01-04 04:45:00,23.3,21.6,30.00,West,259,2.0,2.0,93,0.00,,,0.00,Wunderground v.1.15,2013-01-04 10:45:00,
2013-01-04 04:55:00,22.9,21.2,30.01,West,259,0.0,1.0,93,0.00,,,0.00,Wunderground v.1.15,2013-01-04 10:55:00,
2013-01-04 05:00:00,22.8,21.1,30.01,West,262,0.0,0.0,93,0.00,,,0.00,Wunderground v.1.15,2013-01-04 11:00:00,
2013-01-04 05:10:00,22.6,20.9,30.01,West,269,0.0,0.0,93,0.00,,,0.00,Wunderground v.1.15,2013-01-04 11:10:00,
2013-01-04 05:20:00,22.3,20.6,30.01,West,259,0.0,1.0,93,0.00,,,0.00,Wunderground v.1.15,2013-01-04 11:20:00,
2013-01-04 05:30:00,22.4,20.9,30.02,West,262,3.0,3.0,94,0.00,,,0.00,Wunderground v.1.15,2013-01-04 11:30:00,
2013-01-04 05:35:00,22.5,20.8,30.02,West,259,3.0,3.0,93,0.00,,,0.00,Wunderground v.1.15,2013-01-04 11:35:00,
2013-01-04 05:45:00,22.3,20.6,30.02,West,260,1.0,2.0,93,0.00,,,0.00,Wunderground v.1.15,2013-01-04 11:45:00,
2013-01-04 05:55:00,22.0,20.0,30.02,WSW,255,0.0,1.0,92,0.00,,,0.00,Wunderground v.1.15,2013-01-04 11:55:00,
2013-01-04 06:00:00,21.7,20.0,30.02,SW,225,0.0,0.0,93,0.00,,,0.00,Wunderground v.1.15,2013-01-04 12:00:00,
2013-01-04 06:10:00,21.9,20.2,30.02,West,266,0.0,0.0,93,0.00,,,0.00,Wunderground v.1.15,2013-01-04 12:10:00,
2013-01-04 06:20:00,22.1,20.4,30.02,West,259,0.0,0.0,93,0.00,,,0.00,Wunderground v.1.15,2013-01-04 12:20:00,
2013-01-04 06:30:00,22.1,20.4,30.03,WSW,240,0.0,0.0,93,0.00,,,0.00,Wunderground v.1.15,2013-01-04 12:30:00,
2013-01-04 06:35:00,22.4,20.9,30.03,SW,221,0.0,1.0,94,0.00,,,0.00,Wunderground v.1.15,2013-01-04 12:35:00,
2013-01-04 06:40:00,22.6,21.1,30.03,SW,235,1.0,1.0,94,0.00,,,0.00,Wunderground v.1.15,2013-01-04 12:40:00,
2013-01-04 06:50:00,23.0,21.5,30.03,WSW,239,0.0,0.0,94,0.00,,,0.00,Wunderground v.1.15,2013-01-04 12:50:00,
2013-01-04 07:00:00,22.9,21.2,30.02,SSW,203,0.0,0.0,93,0.00,,,0.00,Wunderground v.1.15,2013-01-04 13:00:00,
2013-01-04 07:10:00,22.4,20.4,30.02,SSW,203,0.0,0.0,92,0.00,,,0.00,Wunderground v.1.15,2013-01-04 13:10:00,
2013-01-04 07:20:00,20.9,18.7,30.02,SSW,203,0.0,0.0,91,0.00,,,0.00,Wunderground v.1.15,2013-01-04 13:20:00,
2013-01-04 07:30:00,20.6,18.9,30.03,SSW,203,0.0,0.0,93,0.00,,,0.00,Wunderground v.1.15,2013-01-04 13:30:00,
2013-01-04 07:35:00,20.7,19.0,30.02,SSW,203,0.0,0.0,93,0.00,,,0.00,Wunderground v.1.15,2013-01-04 13:35:00,
2013-01-04 07:45:00,20.3,18.6,30.02,SSW,203,0.0,0.0,93,0.00,,,0.00,Wunderground v.1.15,2013-01-04 13:45:00,
2013-01-04 07:55:00,21.3,20.1,30.02,SSW,203,0.0,0.0,95,0.00,,,0.00,Wunderground v.1.15,2013-01-04 13:55:00,
2013-01-04 08:01:00,22.1,20.9,30.02,SSW,203,0.0,0.0,95,0.00,,,0.00,Wunderground v.1.15,2013-01-04 14:01:00,
2013-01-04 08:10:00,23.7,22.2,30.02,SSW,203,0.0,0.0,94,0.00,,,0.00,Wunderground v.1.15,2013-01-04 14:10:00,
2013-01-04 08:20:00,24.9,22.1,30.02,SSW,203,0.0,0.0,89,0.00,,,0.00,Wunderground v.1.15,2013-01-04 14:20:00,
2013-01-04 08:30:00,24.1,20.0,30.02,SSW,203,0.0,0.0,84,0.00,,,0.00,Wunderground v.1.15,2013-01-04 14:30:00,
2013-01-04 08:35:00,24.2,20.9,30.03,SSW,203,0.0,0.0,87,0.00,,,0.00,Wunderground v.1.15,2013-01-04 14:35:00,
2013-01-04 08:45:00,27.3,24.5,30.02,SSW,203,0.0,0.0,89,0.00,,,0.00,Wunderground v.1.15,2013-01-04 14:45:00,
2013-01-04 08:50:00,28.0,24.4,30.03,SSW,203,0.0,0.0,86,0.00,,,0.00,Wunderground v.1.15,2013-01-04 14:50:00,
2013-01-04 08:55:00,28.4,25.0,30.03,SSW,203,0.0,0.0,87,0.00,,,0.00,Wunderground v.1.15,2013-01-04 14:55:00,
2013-01-04 09:01:00,29.2,25.3,30.03,SSW,207,0.0,0.0,85,0.00,,,0.00,Wunderground v.1.15,2013-01-04 15:01:00,
2013-01-04 09:10:00,29.9,25.9,30.03,SSE,150,0.0,2.0,85,0.00,,,0.00,Wunderground v.1.15,2013-01-04 15:10:00,
2013-01-04 09:20:00,29.5,25.3,30.04,South,184,2.0,3.0,84,0.00,,,0.00,Wunderground v.1.15,2013-01-04 15:20:00,
2013-01-04 09:25:00,29.2,25.0,30.03,SW,232,3.0,3.0,84,0.00,,,0.00,Wunderground v.1.15,2013-01-04 15:25:00,
2013-01-04 09:35:00,30.0,26.0,30.03,SSE,166,1.0,1.0,85,0.00,,,0.00,Wunderground v.1.15,2013-01-04 15:35:00,
2013-01-04 09:45:00,31.7,27.1,30.03,SSE,155,0.0,1.0,83,0.00,,,0.00,Wunderground v.1.15,2013-01-04 15:45:00,
2013-01-04 09:55:00,32.5,27.3,30.03,SE,129,1.0,1.0,81,0.00,,,0.00,Wunderground v.1.15,2013-01-04 15:55:00,
2013-01-04 10:00:00,33.1,27.9,30.02,ESE,113,1.0,1.0,81,0.00,,,0.00,Wunderground v.1.15,2013-01-04 16:00:00,
2013-01-04 10:10:00,33.9,29.0,30.03,South,188,2.0,2.0,82,0.00,,,0.00,Wunderground v.1.15,2013-01-04 16:10:00,
2013-01-04 10:20:00,34.8,30.2,30.03,South,172,3.0,4.0,83,0.00,,,0.00,Wunderground v.1.15,2013-01-04 16:20:00,
2013-01-04 10:30:00,36.0,30.1,30.03,South,169,3.0,4.0,79,0.00,,,0.00,Wunderground v.1.15,2013-01-04 16:30:00,
2013-01-04 10:35:00,36.5,30.3,30.03,SW,225,3.0,4.0,78,0.00,,,0.00,Wunderground v.1.15,2013-01-04 16:35:00,
2013-01-04 10:45:00,36.8,29.9,30.03,SW,224,4.0,6.0,76,0.00,,,0.00,Wunderground v.1.15,2013-01-04 16:45:00,
2013-01-04 10:55:00,36.7,30.2,30.03,South,186,5.0,5.0,77,0.00,,,0.00,Wunderground v.1.15,2013-01-04 16:55:00,
2013-01-04 11:01:00,37.4,30.5,30.03,SSW,204,4.0,4.0,76,0.00,,,0.00,Wunderground v.1.15,2013-01-04 17:01:00,
2013-01-04 11:10:00,39.0,30.7,30.02,SW,215,2.0,4.0,72,0.00,,,0.00,Wunderground v.1.15,2013-01-04 17:10:00,
2013-01-04 11:20:00,40.5,31.1,30.02,SW,228,3.0,3.0,69,0.00,,,0.00,Wunderground v.1.15,2013-01-04 17:20:00,
2013-01-04 11:30:00,41.8,30.5,30.01,SSW,199,3.0,5.0,64,0.00,,,0.00,Wunderground v.1.15,2013-01-04 17:30:00,
2013-01-04 11:35:00,41.7,29.2,30.01,SW,215,4.0,5.0,61,0.00,,,0.00,Wunderground v.1.15,2013-01-04 17:35:00,
2013-01-04 11:45:00,42.2,28.5,30.00,WSW,248,5.0,5.0,58,0.00,,,0.00,Wunderground v.1.15,2013-01-04 17:45:00,
2013-01-04 11:55:00,42.7,27.2,30.00,WSW,245,5.0,5.0,54,0.00,,,0.00,Wunderground v.1.15,2013-01-04 17:55:00,
2013-01-04 12:00:00,42.9,27.4,29.99,SW,229,5.0,8.0,54,0.00,,,0.00,Wunderground v.1.15,2013-01-04 18:00:00,
2013-01-04 12:10:00,43.3,27.8,29.98,WSW,248,5.0,5.0,54,0.00,,,0.00,Wunderground v.1.15,2013-01-04 18:10:00,
2013-01-04 12:20:00,44.0,27.0,29.98,WSW,243,5.0,6.0,51,0.00,,,0.00,Wunderground v.1.15,2013-01-04 18:20:00,
2013-01-04 12:30:00,44.0,27.0,29.97,SW,235,7.0,9.0,51,0.00,,,0.00,Wunderground v.1.15,2013-01-04 18:30:00,
2013-01-04 12:35:00,44.0,28.0,29.97,SW,235,7.0,9.0,53,0.00,,,0.00,Wunderground v.1.15,2013-01-04 18:35:00,
2013-01-04 12:40:00,44.5,28.0,29.96,SW,234,5.0,5.0,52,0.00,,,0.00,Wunderground v.1.15,2013-01-04 18:40:00,
2013-01-04 12:45:00,44.8,27.8,29.96,WSW,249,5.0,7.0,51,0.00,,,0.00,Wunderground v.1.15,2013-01-04 18:45:00,
2013-01-04 12:55:00,45.1,28.0,29.95,SSW,205,6.0,6.0,51,0.00,,,0.00,Wunderground v.1.15,2013-01-04 18:55:00,
2013-01-04 13:05:00,46.7,28.5,29.94,WSW,248,4.0,10.0,49,0.00,,,0.00,Wunderground v.1.15,2013-01-04 19:05:00,
2013-01-04 13:15:00,47.0,27.8,29.94,SSW,211,6.0,7.0,47,0.00,,,0.00,Wunderground v.1.15,2013-01-04 19:15:00,
2013-01-04 13:25:00,46.8,27.1,29.94,WSW,257,8.0,8.0,46,0.00,,,0.00,Wunderground v.1.15,2013-01-04 19:25:00,
2013-01-04 13:30:00,47.2,27.5,29.93,SE,143,7.0,8.0,46,0.00,,,0.00,Wunderground v.1.15,2013-01-04 19:30:00,
2013-01-04 13:35:00,47.7,27.4,29.93,SW,224,6.0,10.0,45,0.00,,,0.00,Wunderground v.1.15,2013-01-04 19:35:00,
2013-01-04 13:45:00,47.9,27.6,29.93,WSW,255,7.0,7.0,45,0.00,,,0.00,Wunderground v.1.15,2013-01-04 19:45:00,
2013-01-04 13:55:00,47.3,27.5,29.93,WSW,238,7.0,11.0,46,0.00,,,0.00,Wunderground v.1.15,2013-01-04 19:55:00,
2013-01-04 14:00:00,47.0,26.7,29.93,West,271,8.0,8.0,45,0.00,,,0.00,Wunderground v.1.15,2013-01-04 20:00:00,
2013-01-04 14:10:00,47.1,27.4,29.92,WSW,249,7.0,11.0,46,0.00,,,0.00,Wunderground v.1.15,2013-01-04 20:10:00,
2013-01-04 14:20:00,47.1,27.4,29.92,WSW,243,7.0,11.0,46,0.00,,,0.00,Wunderground v.1.15,2013-01-04 20:20:00,
2013-01-04 14:30:00,47.1,26.8,29.92,SSW,210,7.0,7.0,45,0.00,,,0.00,Wunderground v.1.15,2013-01-04 20:30:00,
2013-01-04 14:40:00,47.2,26.9,29.92,SW,229,7.0,7.0,45,0.00,,,0.00,Wunderground v.1.15,2013-01-04 20:40:00,
2013-01-04 14:50:00,47.4,26.6,29.91,WSW,257,7.0,7.0,44,0.00,,,0.00,Wunderground v.1.15,2013-01-04 20:50:00,
2013-01-04 15:05:00,47.7,27.9,29.91,SW,233,7.0,7.0,46,0.00,,,0.00,Wunderground v.1.15,2013-01-04 21:05:00,
2013-01-04 15:15:00,48.3,27.9,29.91,WSW,238,7.0,7.0,45,0.00,,,0.00,Wunderground v.1.15,2013-01-04 21:15:00,
2013-01-04 15:25:00,48.7,27.7,29.91,West,259,6.0,6.0,44,0.00,,,0.00,Wunderground v.1.15,2013-01-04 21:25:00,
2013-01-04 15:35:00,48.4,26.3,29.91,WSW,255,8.0,9.0,42,0.00,,,0.00,Wunderground v.1.15,2013-01-04 21:35:00,
2013-01-04 15:45:00,48.3,26.2,29.91,WSW,250,8.0,8.0,42,0.00,,,0.00,Wunderground v.1.15,2013-01-04 21:45:00,
2013-01-04 15:50:00,48.5,26.4,29.91,West,260,7.0,8.0,42,0.00,,,0.00,Wunderground v.1.15,2013-01-04 21:50:00,
2013-01-04 16:00:00,48.2,27.3,29.91,West,261,7.0,7.0,44,0.00,,,0.00,Wunderground v.1.15,2013-01-04 22:00:00,
2013-01-04 16:10:00,48.1,27.2,29.90,SW,235,6.0,11.0,44,0.00,,,0.00,Wunderground v.1.15,2013-01-04 22:10:00,
2013-01-04 16:20:00,48.0,26.0,29.90,WSW,246,6.0,6.0,42,0.00,,,0.00,Wunderground v.1.15,2013-01-04 22:20:00,
2013-01-04 16:30:00,47.9,25.9,29.91,SW,232,5.0,7.0,42,0.00,,,0.00,Wunderground v.1.15,2013-01-04 22:30:00,
2013-01-04 16:35:00,47.7,25.7,29.91,SW,231,5.0,7.0,42,0.00,,,0.00,Wunderground v.1.15,2013-01-04 22:35:00,
2013-01-04 16:45:00,47.3,25.9,29.91,West,260,6.0,8.0,43,0.00,,,0.00,Wunderground v.1.15,2013-01-04 22:45:00,
2013-01-04 16:50:00,47.1,25.7,29.90,West,259,5.0,5.0,43,0.00,,,0.00,Wunderground v.1.15,2013-01-04 22:50:00,
2013-01-04 17:01:00,46.8,26.0,29.90,SW,234,5.0,5.0,44,0.00,,,0.00,Wunderground v.1.15,2013-01-04 23:01:00,
2013-01-04 17:10:00,46.2,25.5,29.91,West,262,4.0,4.0,44,0.00,,,0.00,Wunderground v.1.15,2013-01-04 23:10:00,
2013-01-04 17:20:00,45.2,25.6,29.91,WSW,257,2.0,2.0,46,0.00,,,0.00,Wunderground v.1.15,2013-01-04 23:20:00,
2013-01-04 17:25:00,44.8,25.8,29.91,West,260,2.0,2.0,47,0.00,,,0.00,Wunderground v.1.15,2013-01-04 23:25:00,
2013-01-04 17:35:00,44.2,26.2,29.90,WSW,252,1.0,2.0,49,0.00,,,0.00,Wunderground v.1.15,2013-01-04 23:35:00,
2013-01-04 17:45:00,43.7,25.8,29.90,SW,232,0.0,0.0,49,0.00,,,0.00,Wunderground v.1.15,2013-01-04 23:45:00,
2013-01-04 17:55:00,43.4,26.0,29.90,SW,228,1.0,1.0,50,0.00,,,0.00,Wunderground v.1.15,2013-01-04 23:55:00,
2013-01-04 18:00:00,43.2,25.8,29.91,West,259,1.0,1.0,50,0.00,,,0.00,Wunderground v.1.15,2013-01-05 00:00:00,
2013-01-04 18:10:00,42.8,25.9,29.90,South,172,0.0,0.0,51,0.00,,,0.00,Wunderground v.1.15,2013-01-05 00:10:00,
2013-01-04 18:20:00,42.1,25.7,29.91,South,172,0.0,0.0,52,0.00,,,0.00,Wunderground v.1.15,2013-01-05 00:20:00,
2013-01-04 18:25:00,41.8,25.4,29.90,SSE,150,0.0,0.0,52,0.00,,,0.00,Wunderground v.1.15,2013-01-05 00:25:00,
2013-01-04 18:35:00,41.3,25.4,29.91,SSE,158,1.0,1.0,53,0.00,,,0.00,Wunderground v.1.15,2013-01-05 00:35:00,
2013-01-04 18:45:00,41.2,25.3,29.91,SSW,201,1.0,2.0,53,0.00,,,0.00,Wunderground v.1.15,2013-01-05 00:45:00,
2013-01-04 18:50:00,41.0,25.6,29.91,SSW,198,1.0,3.0,54,0.00,,,0.00,Wunderground v.1.15,2013-01-05 00:50:00,
2013-01-04 19:01:00,40.6,25.2,29.91,SSW,203,2.0,2.0,54,0.00,,,0.00,Wunderground v.1.15,2013-01-05 01:01:00,
2013-01-04 19:10:00,40.3,25.0,29.91,SW,224,2.0,2.0,54,0.00,,,0.00,Wunderground v.1.15,2013-01-05 01:10:00,
2013-01-04 19:15:00,40.1,25.2,29.91,SW,219,1.0,3.0,55,0.00,,,0.00,Wunderground v.1.15,2013-01-05 01:15:00,
2013-01-04 19:25:00,39.8,24.9,29.91,SW,224,1.0,1.0,55,0.00,,,0.00,Wunderground v.1.15,2013-01-05 01:25:00,
2013-01-04 19:35:00,39.5,25.1,29.91,SSW,205,1.0,2.0,56,0.00,,,0.00,Wunderground v.1.15,2013-01-05 01:35:00,
2013-01-04 19:45:00,39.0,25.0,29.91,SSW,201,1.0,1.0,57,0.00,,,0.00,Wunderground v.1.15,2013-01-05 01:45:00,
2013-01-04 19:55:00,38.6,25.1,29.91,SSW,212,1.0,1.0,58,0.00,,,0.00,Wunderground v.1.15,2013-01-05 01:55:00,
2013-01-04 20:00:00,38.5,25.0,29.91,SSW,205,1.0,2.0,58,0.00,,,0.00,Wunderground v.1.15,2013-01-05 02:00:00,
2013-01-04 20:10:00,38.1,25.4,29.91,SSE,162,1.0,2.0,60,0.00,,,0.00,Wunderground v.1.15,2013-01-05 02:10:00,
2013-01-04 20:20:00,38.1,26.2,29.91,South,187,2.0,3.0,62,0.00,,,0.00,Wunderground v.1.15,2013-01-05 02:20:00,
2013-01-04 20:30:00,38.3,26.4,29.90,SSW,205,3.0,3.0,62,0.00,,,0.00,Wunderground v.1.15,2013-01-05 02:30:00,
2013-01-04 20:35:00,38.4,26.5,29.91,South,181,3.0,3.0,62,0.00,,,0.00,Wunderground v.1.15,2013-01-05 02:35:00,
2013-01-04 20:45:00,38.4,26.5,29.90,SSE,153,2.0,3.0,62,0.00,,,0.00,Wunderground v.1.15,2013-01-05 02:45:00,
2013-01-04 20:55:00,38.2,26.3,29.90,SSE,159,3.0,3.0,62,0.00,,,0.00,Wunderground v.1.15,2013-01-05 02:55:00,
2013-01-04 21:05:00,38.2,26.3,29.90,South,177,2.0,2.0,62,0.00,,,0.00,Wunderground v.1.15,2013-01-05 03:05:00,
2013-01-04 21:15:00,38.1,26.2,29.90,SSE,160,1.0,2.0,62,0.00,,,0.00,Wunderground v.1.15,2013-01-05 03:15:00,
2013-01-04 21:25:00,38.1,26.2,29.90,ESE,123,2.0,2.0,62,0.00,,,0.00,Wunderground v.1.15,2013-01-05 03:25:00,
2013-01-04 21:30:00,38.0,26.1,29.90,SE,136,2.0,2.0,62,0.00,,,0.00,Wunderground v.1.15,2013-01-05 03:30:00,
2013-01-04 21:35:00,37.9,26.0,29.90,SSE,148,1.0,1.0,62,0.00,,,0.00,Wunderground v.1.15,2013-01-05 03:35:00,
2013-01-04 21:45:00,37.7,25.8,29.90,SE,134,1.0,1.0,62,0.00,,,0.00,Wunderground v.1.15,2013-01-05 03:45:00,
2013-01-04 21:55:00,37.3,25.8,29.90,SSE,158,0.0,0.0,63,0.00,,,0.00,Wunderground v.1.15,2013-01-05 03:55:00,
2013-01-04 22:00:00,37.0,25.6,29.90,SE,125,0.0,0.0,63,0.00,,,0.00,Wunderground v.1.15,2013-01-05 04:00:00,
2013-01-04 22:10:00,36.5,25.5,29.89,ESE,110,0.0,1.0,64,0.00,,,0.00,Wunderground v.1.15,2013-01-05 04:10:00,
2013-01-04 22:20:00,36.0,25.4,29.89,SE,135,1.0,2.0,65,0.00,,,0.00,Wunderground v.1.15,2013-01-05 04:20:00,
2013-01-04 22:30:00,35.9,25.3,29.89,SE,126,1.0,1.0,65,0.00,,,0.00,Wunderground v.1.15,2013-01-05 04:30:00,
2013-01-04 22:35:00,35.8,25.2,29.89,SSE,152,0.0,1.0,65,0.00,,,0.00,Wunderground v.1.15,2013-01-05 04:35:00,
2013-01-04 22:45:00,35.6,25.4,29.90,SSE,152,0.0,0.0,66,0.00,,,0.00,Wunderground v.1.15,2013-01-05 04:45:00,
2013-01-04 22:50:00,35.4,25.2,29.90,SSE,152,0.0,0.0,66,0.00,,,0.00,Wunderground v.1.15,2013-01-05 04:50:00,
2013-01-04 23:05:00,35.3,25.1,29.89,SE,131,0.0,0.0,66,0.00,,,0.00,Wunderground v.1.15,2013-01-05 05:05:00,
2013-01-04 23:10:00,35.0,25.1,29.89,SE,131,0.0,0.0,67,0.00,,,0.00,Wunderground v.1.15,2013-01-05 05:10:00,
2013-01-04 23:20:00,34.3,24.8,29.88,SE,131,0.0,0.0,68,0.00,,,0.00,Wunderground v.1.15,2013-01-05 05:20:00,
2013-01-04 23:25:00,34.3,24.8,29.88,SE,131,0.0,0.0,68,0.00,,,0.00,Wunderground v.1.15,2013-01-05 05:25:00,
2013-01-04 23:30:00,34.4,24.9,29.88,SE,131,0.0,0.0,68,0.00,,,0.00,Wunderground v.1.15,2013-01-05 05:30:00,
2013-01-04 23:35:00,34.4,24.9,29.87,SE,131,0.0,0.0,68,0.00,,,0.00,Wunderground v.1.15,2013-01-05 05:35:00,
2013-01-04 23:45:00,34.3,24.8,29.88,SE,131,0.0,0.0,68,0.00,,,0.00,Wunderground v.1.15,2013-01-05 05:45:00,
2013-01-04 23:55:00,34.2,24.7,29.88,SE,131,0.0,0.0,68,0.00,,,0.00,Wunderground v.1.15,2013-01-05 05:55:00,